STARLINK-1411, 45706

Orbit data source: Space-Track

STARLINK-1411, 45706 is a payload satellite owned by SpaceX/Seattle (US) in LEO that was launched on Thu, 04 Jun 2020 UTC via an FALCON 9 launch vehicle from the Air Force Eastern Test Range (AFETR). Payload-class satellites include a variety of spacecraft equipped with specific instruments for various scientific and technological missions. These include communications satellites like Starlink; space stations such as the ISS; scientific satellites like the Hubble; Earth observation satellites from companies like Planet Labs, Umbra, and HawkEye 360; GPS; miniature CubeSats for education and research; and military/defense satellites.

Loading next visibility...
Identifier
45706, 2020-035BB
Orbit
LEO
Country
Flag of USUS
Related business
Manufacturer
SpaceX/Seattle
Mission
Partially operational Commercial Communications
Bus & Motor
STARLINK, Unknown motor
Mass
260 kg wet, ~248 kg dry
Launch date (UTC)
2020-06-04 (5 years ago)
Launch vehicle
FALCON 9
Launch site
Air Force Eastern Test Range (AFETR)
Object type
Payload
Rocket body
Debris
Shape & HBR
Box + 1 Pan, 10.1 m
Radar Cross Section
13.562 m², Large (>1 m²)

Expand to show TLE details & history
Last TLE update: 16 hours ago

TLE from 16 hours ago
0 STARLINK-1411
1 45706U 20035BB  25287.33335648  .00109761  00000-0  30792-2 0  9998
2 45706  53.0549 323.2453 0001170  62.9379 236.1703 15.35728218  5613
Epoch: 2025-10-14T08:00Z
TLE epoch observation values (Epoch: 2025-10-14T08:00:01.999Z)
Latitude
-44.48788°
Longitude
132.83663°
Altitude
474.21 km
Speed
7.628 km/s
True Right ascension
18h 23m 52s
True Declination
-44° 18' 32"
Sunlit
Object was in daylight at epoch
Visualization orbit readout
Latitude
Unknown
Longitude
Unknown
Altitude
Unknown
Speed
Unknown
Apparent Right ascension
Unknown
Apparent Declination
Unknown
Sunlit
N/A
Visualization observer readout
Local Sidereal Time
19:03:06
Azimuth
Unknown
Elevation
Unknown
Doppler factor
Unknown
Orbital elements
Apogee altitude
459.832 km
Perigee altitude
458.232 km
Semi-major axis
6,837.169 km
Eccentricity
0.00012
Inclination
53.0549°
RAAN
323.2453°
Arg. of periapsis
62.9379°
True anomaly
236.15916°
Mean anomaly
236.1703°
Eccentric anomaly
236.16473°
Mean motion
3.83909 °/min
Orbital period
93.77 mins
BSTAR
0.0030792
Loading maneuver chart data...
Computing Atmospheric mass density...
Loading historical data...
Loading historical data...
Loading historical data...
Loading historical data...
Loading historical data...
Loading historical data...
Loading historical data...

Documentation

Showing up to 5 results
|